1487394000.25,22001,11.81,73182.8,-11.57,-17.63,-14.89,0,*64
1487394001.51,22002,11.81,73180.5,-11.55,-17.45,-14.69,0,*6F
1487394002.81,22003,11.81,73184.3,-11.55,-17.45,-14.51,0,*65
1487394004.05,22004,11.81,73180.8,-11.57,-17.21,-14.29,0,*6D
1487394005.28,22005,11.81,73182.3,-11.55,-16.97,-14.11,0,*69
1487394006.55,22006,11.88,73184.0,-11.55,-16.75,-13.97,0,*6F
1487394007.79,22007,11.81,73182.5,-11.57,-16.51,-13.73,0,*60
1487394009.03,22008,11.81,73184.0,-11.57,-16.17,-13.55,0,*69
1487394010.23,22009,11.81,73182.5,-11.57,-15.95,-13.43,0,*66
1487394011.5,22010,11.81,73180.3,-11.55,-15.67,-13.33,0,*66
1487394012.76,22011,11.81,73186.3,-11.55,-15.21,-13.23,0,*64
1487394014.02,22012,11.81,73186.8,-11.51,-14.83,-13.07,0,*6C
1487394015.29,22013,11.81,73186.0,-11.55,-14.55,-13.07,0,*62
1487394016.53,22014,11.81,73184.8,-11.55,-14.29,-13.19,0,*61
1487394017.75,22015,11.81,73186.3,-11.57,-14.23,-13.23,0,*61
1487394019.0,22016,11.81,73186.0,-11.57,-14.15,-13.29,0,*6D
1487394020.27,22017,11.81,73186.3,-11.55,-13.97,-13.23,0,*69
1487394021.57,22018,11.81,73184.0,-11.55,-13.83,-13.33,0,*62
1487394022.86,22019,11.81,73182.3,-11.55,-13.79,-13.37,0,*62
1487394024.09,22020,11.81,73184.0,-11.55,-13.69,-13.43,0,*6A
1487394025.35,22021,11.81,73186.3,-11.51,-13.79,-13.51,0,*6D
1487394026.62,22022,11.81,73184.5,-11.51,-13.83,-13.55,0,*6F
1487394027.88,22023,11.81,73180.3,-11.51,-13.79,-13.65,0,*68
1487394029.11,22024,11.81,73184.0,-11.51,-13.69,-13.69,0,*62
1487394030.4,22025,11.81,73186.0,-11.51,-13.83,-13.83,0,*63
1487394031.65,22026,11.81,73186.5,-11.51,-13.93,-13.79,0,*64
1487394032.86,22027,11.81,73182.0,-11.49,-13.93,-13.93,0,*68
1487394034.09,22028,11.81,73182.5,-11.51,-13.93,-13.93,0,*6E
1487394035.36,22029,11.81,73182.8,-11.49,-14.05,-13.97,0,*6A
1487394036.6,22030,11.81,73182.0,-11.49,-13.93,-14.01,0,*62
1487394037.84,22031,11.81,73186.3,-11.51,-14.11,-14.11,0,*66
1487394039.07,22032,11.81,73182.8,-11.51,-14.11,-14.11,0,*65
1487394040.32,22033,11.81,73184.0,-11.49,-14.19,-14.05,0,*60
1487394041.55,22034,11.81,73186.8,-11.51,-14.29,-14.19,0,*60
1487394042.79,22035,11.81,73182.5,-11.51,-14.29,-14.19,0,*61
1487394044.01,22036,11.81,73184.0,-11.49,-14.23,-14.15,0,*6D
1487394045.25,22037,11.81,73186.5,-11.51,-14.37,-14.19,0,*6C
1487394046.49,22038,11.81,73188.8,-11.49,-14.47,-14.19,0,*6D
1487394047.71,22039,11.81,73184.5,-11.49,-14.37,-14.15,0,*67
1487394048.97,22040,11.81,73186.3,-11.51,-14.55,-14.11,0,*60
1487394050.23,22041,11.81,73184.8,-11.51,-14.55,-14.19,0,*69
1487394051.5,22042,11.81,73188.5,-11.49,-14.51,-14.05,0,*6A
1487394052.76,22043,11.81,73184.8,-11.51,-14.55,-14.11,0,*63
1487394053.99,22044,11.81,73186.0,-11.51,-14.65,-14.11,0,*67
1487394055.26,22045,11.81,73188.0,-11.49,-14.51,-14.01,0,*69
1487394056.5,22046,11.81,73184.8,-11.49,-14.61,-14.05,0,*6D
1487394057.73,22047,11.81,73184.5,-11.49,-14.61,-14.05,0,*6C
1487394059.02,22048,11.81,73186.8,-11.51,-14.55,-14.05,0,*6D
1487394060.32,22049,11.81,73190.5,-11.51,-14.55,-13.97,0,*60
1487394061.55,22050,11.81,73188.8,-11.49,-14.61,-13.87,0,*67
1487394062.81,22051,11.81,73186.3,-11.49,-14.51,-13.79,0,*64
1487394064.02,22052,11.81,73186.5,-11.49,-14.37,-13.73,0,*6D
1487394065.26,22053,11.81,73188.0,-11.49,-14.47,-13.73,0,*6B
1487394066.51,22054,11.81,73184.8,-11.49,-14.37,-13.61,0,*68
1487394067.75,22055,11.81,73182.0,-11.49,-14.37,-13.61,0,*69
1487394068.97,22056,11.81,73184.5,-11.49,-14.23,-13.51,0,*6C
1487394070.18,22057,11.81,73182.3,-11.49,-14.23,-13.47,0,*6A
1487394071.39,22058,11.81,73184.8,-11.49,-14.19,-13.47,0,*6C
1487394072.6,22059,11.81,73184.8,-11.49,-14.15,-13.47,0,*61
1487394073.84,22060,11.81,73184.3,-11.49,-14.05,-13.47,0,*6A
1487394075.11,22061,11.81,73186.3,-11.49,-14.01,-13.33,0,*6C
1487394076.4,22062,11.81,73186.5,-11.51,-13.97,-13.29,0,*65
1487394077.65,22063,11.81,73186.8,-11.49,-13.87,-13.19,0,*6F
1487394078.88,22064,11.81,73184.8,-11.49,-13.79,-13.15,0,*65
1487394080.09,22065,11.81,73186.5,-11.49,-13.73,-13.07,0,*6D
1487394081.33,22066,11.81,73184.3,-11.49,-13.61,-13.15,0,*6E
1487394082.54,22067,11.81,73182.8,-11.49,-13.51,-13.07,0,*6F
1487394083.75,22068,11.81,73182.5,-11.49,-13.47,-13.07,0,*67
1487394085.0,22069,11.81,73182.8,-11.47,-13.51,-12.93,0,*63
1487394086.24,22070,11.81,73186.8,-11.47,-13.47,-12.89,0,*67
1487394087.53,22071,11.81,73184.8,-11.47,-13.37,-12.79,0,*6E
1487394088.83,22072,11.81,73184.5,-11.47,-13.37,-12.79,0,*6D
1487394090.12,22073,11.81,73188.8,-11.47,-13.29,-12.79,0,*63
1487394091.39,22074,11.81,73188.8,-11.47,-13.19,-12.65,0,*6A
1487394092.65,22075,11.81,73184.8,-11.47,-13.19,-12.65,0,*6B
1487394093.89,22076,11.81,73182.3,-11.45,-13.11,-12.61,0,*66
1487394095.15,22077,11.81,73182.3,-11.45,-13.01,-12.61,0,*66
1487394096.41,22078,11.81,73184.5,-11.47,-13.15,-12.61,0,*6E
1487394097.65,22079,11.81,73186.5,-11.47,-13.07,-12.47,0,*68
1487394098.92,22080,11.81,73186.0,-11.47,-13.07,-12.61,0,*6A
1487394100.13,22081,11.81,73184.0,-11.45,-12.97,-12.47,0,*65
1487394101.34,22082,11.81,73186.0,-11.45,-12.89,-12.43,0,*6D
1487394102.61,22083,11.81,73186.5,-11.45,-12.83,-12.35,0,*67
1487394103.87,22084,11.81,73186.0,-11.45,-12.61,-12.35,0,*6C
1487394105.13,22085,11.81,73180.0,-11.43,-12.71,-12.25,0,*6B
1487394106.4,22086,11.81,73182.0,-11.43,-12.71,-12.29,0,*64
1487394107.66,22087,11.81,73182.8,-11.43,-12.61,-12.25,0,*68
1487394108.89,22088,11.81,73184.3,-11.45,-12.61,-12.25,0,*61
1487394110.13,22089,11.81,73184.8,-11.43,-12.47,-12.25,0,*62
1487394111.42,22090,11.81,73186.5,-11.43,-12.35,-12.11,0,*68
1487394112.71,22091,11.81,73184.0,-11.43,-12.35,-12.15,0,*6D
1487394113.95,22092,11.81,73188.0,-11.41,-12.25,-12.11,0,*69
1487394115.21,22093,11.81,73184.3,-11.43,-12.25,-12.11,0,*6A
1487394116.48,22094,11.81,73188.0,-11.43,-12.25,-12.11,0,*6D
1487394117.74,22095,11.81,73184.8,-11.43,-12.15,-12.03,0,*6C
1487394119.0,22096,11.81,73186.3,-11.41,-12.11,-11.97,0,*67
1487394120.26,22097,11.81,73184.5,-11.41,-12.11,-11.97,0,*66
1487394121.53,22098,11.81,73184.8,-11.41,-12.07,-11.93,0,*6A
1487394122.79,22099,11.81,73184.0,-11.41,-12.07,-11.93,0,*6B
1487394124.06,22100,11.81,73184.8,-11.41,-12.11,-11.93,0,*6D
1487394125.32,22101,11.81,73182.5,-11.41,-12.07,-11.93,0,*6B
1487394126.58,22102,11.81,73184.0,-11.41,-12.07,-11.97,0,*6C
1487394127.84,22103,11.81,73182.5,-11.41,-11.97,-11.97,0,*67
1487394129.1,22104,11.81,73182.8,-11.41,-11.97,-11.97,0,*60
1487394130.37,22105,11.81,73184.5,-11.41,-11.93,-11.93,0,*61
1487394131.63,22106,11.81,73180.8,-11.43,-12.03,-11.97,0,*6E
1487394132.89,22107,11.81,73182.5,-11.41,-11.97,-11.93,0,*67
1487394134.17,22108,11.81,73190.0,-11.39,-11.93,-11.93,0,*63
1487394135.44,22109,11.81,73190.8,-11.39,-11.97,-11.97,0,*62
1487394136.72,22110,11.81,73186.5,-11.39,-11.97,-11.93,0,*6E
1487394138.02,22111,11.81,73186.3,-11.37,-11.93,-11.89,0,*6E
1487394139.3,22112,11.81,73186.5,-11.39,-11.93,-11.93,0,*68
1487394140.59,22113,11.81,73184.0,-11.37,-11.89,-11.81,0,*6F
1487394141.89,22114,11.81,73180.5,-11.37,-11.93,-11.89,0,*6B
1487394143.19,22115,11.81,73180.5,-11.37,-11.89,-11.93,0,*6A
1487394144.46,22116,11.81,73180.3,-11.39,-11.97,-11.97,0,*6C
1487394145.76,22117,11.81,73182.5,-11.37,-11.93,-11.81,0,*60
1487394147.06,22118,11.81,73184.0,-11.37,-11.89,-11.89,0,*6C
1487394148.36,22119,11.81,73182.5,-11.37,-11.93,-11.93,0,*6D
1487394149.6,22120,11.81,73182.0,-11.35,-12.03,-11.93,0,*6F
1487394150.85,22121,11.81,73182.8,-11.35,-12.03,-11.93,0,*6E
1487394152.14,22122,11.81,73180.0,-11.33,-11.97,-11.85,0,*62
1487394153.41,22123,11.81,73184.3,-11.35,-12.07,-11.93,0,*68
1487394154.7,22124,11.81,73186.5,-11.33,-12.11,-11.97,0,*6A
1487394155.95,22125,11.81,73186.5,-11.35,-12.07,-12.03,0,*64
1487394157.22,22126,11.81,73184.5,-11.35,-12.15,-12.07,0,*60
1487394158.44,22127,11.81,73184.3,-11.35,-12.21,-12.21,0,*62
1487394159.71,22128,11.81,73190.3,-11.33,-12.21,-12.15,0,*6C
1487394160.98,22129,11.81,73190.0,-11.33,-12.29,-12.15,0,*65
1487394162.27,22130,11.81,73188.5,-11.33,-12.35,-12.15,0,*60
1487394163.54,22131,11.81,73188.8,-11.33,-12.29,-12.11,0,*68
1487394164.81,22132,11.81,73188.0,-11.33,-12.29,-12.11,0,*6B
1487394166.06,22133,11.81,73186.0,-11.35,-12.35,-12.21,0,*62
1487394167.33,22134,11.81,73184.3,-11.35,-12.35,-12.15,0,*62
1487394168.6,22135,11.81,73184.5,-11.33,-12.21,-12.11,0,*64
1487394169.85,22136,11.81,73186.8,-11.33,-12.21,-12.03,0,*64
1487394171.07,22137,11.81,73184.8,-11.31,-12.29,-12.03,0,*6F
1487394172.29,22138,11.81,73186.5,-11.31,-12.29,-12.03,0,*60
1487394173.54,22139,11.81,73188.5,-11.33,-12.21,-12.03,0,*6B
1487394174.8,22140,11.81,73186.5,-11.31,-12.21,-11.89,0,*66
1487394176.05,22141,11.81,73186.0,-11.31,-12.21,-11.89,0,*67
1487394177.32,22142,11.81,73184.3,-11.31,-12.11,-11.85,0,*6B
1487394178.58,22143,11.81,73184.3,-11.31,-11.97,-11.77,0,*6A
1487394179.84,22144,11.81,73188.8,-11.31,-11.97,-11.77,0,*6D
1487394181.08,22145,11.81,73186.3,-11.31,-12.03,-11.73,0,*66
1487394182.36,22146,11.81,73188.0,-11.27,-11.93,-11.67,0,*6D
1487394183.63,22147,11.81,73184.3,-11.31,-11.97,-11.73,0,*6A
1487394184.9,22148,11.81,73184.5,-11.27,-11.81,-11.67,0,*60
1487394186.16,22149,11.81,73184.0,-11.31,-11.85,-11.77,0,*63
1487394187.43,22150,11.81,73184.3,-11.27,-11.81,-11.67,0,*69
1487394188.7,22151,11.81,73180.8,-11.27,-11.73,-11.67,0,*65
1487394189.96,22152,11.81,73182.0,-11.27,-11.81,-11.67,0,*6B
1487394191.25,22153,11.81,73180.0,-11.25,-11.81,-11.67,0,*68
1487394192.54,22154,11.81,73180.5,-11.25,-11.81,-11.73,0,*6A
1487394193.8,22155,11.81,73180.5,-11.27,-11.81,-11.73,0,*69
1487394195.09,22156,11.81,73180.8,-11.25,-11.81,-11.73,0,*68
1487394196.38,22157,11.81,73182.0,-11.25,-11.85,-11.73,0,*6D
1487394197.65,22158,11.81,73182.8,-11.27,-11.85,-11.67,0,*65
1487394198.92,22159,11.81,73184.0,-11.27,-11.85,-11.67,0,*64
1487394200.21,22160,11.81,73186.0,-11.25,-11.93,-11.81,0,*63
1487394201.5,22161,11.81,73180.3,-11.25,-11.93,-11.81,0,*62
1487394202.8,22162,11.81,73180.0,-11.25,-11.93,-11.81,0,*61
1487394204.08,22163,11.81,73182.5,-11.25,-11.85,-11.81,0,*67
1487394205.37,22164,11.81,73180.0,-11.25,-11.85,-11.73,0,*6D
1487394206.66,22165,11.81,73182.0,-11.25,-11.85,-11.73,0,*6C
1487394207.92,22166,11.81,73180.5,-11.23,-11.81,-11.67,0,*68
1487394209.22,22167,11.81,73184.3,-11.25,-11.93,-11.67,0,*6C
1487394210.49,22168,11.81,73184.5,-11.23,-11.89,-11.67,0,*6E
1487394211.78,22169,11.81,73186.8,-11.25,-11.85,-11.73,0,*60
1487394213.05,22170,11.81,73184.8,-11.23,-11.81,-11.63,0,*6B
1487394214.31,22171,11.81,73188.8,-11.23,-11.81,-11.67,0,*6E
1487394215.58,22172,11.81,73186.0,-11.23,-11.85,-11.73,0,*6C
1487394216.84,22173,11.81,73184.5,-11.23,-11.89,-11.77,0,*65
1487394218.1,22174,11.81,73182.3,-11.23,-11.81,-11.77,0,*6A
1487394219.37,22175,11.81,73184.0,-11.23,-11.77,-11.77,0,*62
1487394220.63,22176,11.81,73184.8,-11.23,-11.81,-11.67,0,*69
1487394221.89,22177,11.81,73184.8,-11.23,-11.81,-11.77,0,*69
1487394223.18,22178,11.81,73184.8,-11.21,-11.81,-11.67,0,*65
1487394224.47,22179,11.81,73186.5,-11.21,-11.89,-11.77,0,*6D
1487394225.76,22180,11.81,73186.0,-11.21,-11.89,-11.77,0,*6B
1487394227.05,22181,11.81,73192.3,-11.21,-11.89,-11.67,0,*6B
1487394228.31,22182,11.81,73190.8,-11.23,-11.81,-11.77,0,*63
1487394229.57,22183,11.81,73188.5,-11.19,-11.81,-11.77,0,*6B
1487394230.86,22184,11.81,73184.3,-11.21,-11.77,-11.77,0,*6E
1487394232.14,22185,11.81,73188.3,-11.21,-11.81,-11.67,0,*67
1487394233.44,22186,11.81,73188.5,-11.21,-11.77,-11.63,0,*69
1487394234.74,22187,11.81,73186.5,-11.21,-11.77,-11.63,0,*68
1487394236.02,22188,11.81,73188.5,-11.21,-11.81,-11.67,0,*6A
1487394237.31,22189,11.81,73180.0,-11.21,-11.81,-11.67,0,*6B
1487394238.58,22190,11.81,73184.0,-11.19,-11.77,-11.63,0,*65
1487394239.85,22191,11.81,73186.3,-11.19,-11.81,-11.67,0,*69
1487394241.12,22192,11.81,73184.5,-11.19,-11.77,-11.63,0,*67
1487394242.38,22193,11.81,73186.0,-11.19,-11.67,-11.77,0,*62
1487394243.65,22194,11.81,73184.5,-11.19,-11.77,-11.67,0,*65
1487394244.92,22195,11.81,73190.3,-11.19,-11.77,-11.77,0,*65
1487394246.18,22196,11.81,73190.3,-11.19,-11.67,-11.81,0,*6E
1487394247.45,22197,11.81,73190.3,-11.19,-11.67,-11.81,0,*6F
1487394248.73,22198,11.81,73188.3,-11.17,-11.73,-11.85,0,*6F
1487394250.02,22199,11.81,73190.8,-11.17,-11.73,-11.89,0,*62
1487394251.31,22200,11.81,73186.8,-11.17,-11.85,-11.89,0,*68
1487394252.6,22201,11.81,73188.0,-11.17,-11.89,-11.97,0,*6A
1487394253.87,22202,11.81,73186.8,-11.15,-11.97,-11.97,0,*64
1487394255.1,22203,11.81,73178.8,-11.17,-12.03,-12.03,0,*67
1487394256.34,22204,11.81,73174.8,-11.17,-12.03,-12.03,0,*60
1487394257.61,22205,11.81,73182.8,-11.17,-12.03,-12.07,0,*65
1487394258.87,22206,11.81,73182.8,-11.17,-12.03,-12.15,0,*65
1487394260.11,22207,11.81,73182.5,-11.17,-12.03,-12.29,0,*6B
1487394261.38,22208,11.81,73186.0,-11.17,-12.15,-12.43,0,*6F
1487394262.67,22209,11.81,73184.3,-11.17,-12.07,-12.57,0,*68
1487394263.94,22210,11.81,73184.3,-11.15,-12.15,-12.53,0,*65
1487394265.23,22211,11.81,73184.5,-11.17,-12.35,-12.57,0,*60
1487394266.52,22212,11.81,73180.3,-11.17,-12.35,-12.61,0,*66
1487394267.76,22213,11.81,73184.8,-11.15,-12.29,-12.57,0,*6D
1487394269.03,22214,11.81,73184.3,-11.17,-12.43,-12.71,0,*60
1487394270.32,22215,11.81,73180.3,-11.17,-12.71,-12.83,0,*6D
1487394271.59,22216,11.81,73180.5,-11.15,-12.57,-12.79,0,*6D
1487394272.83,22217,11.81,73184.0,-11.15,-12.65,-12.97,0,*6D
1487394274.06,22218,11.81,73182.8,-11.15,-12.83,-13.23,0,*64
1487394275.3,22219,11.81,73180.0,-11.15,-13.01,-13.43,0,*68
1487394276.56,22220,11.81,73180.3,-11.17,-13.33,-13.73,0,*62
1487394277.79,22221,11.81,73180.3,-11.15,-13.55,-13.83,0,*6E
1487394279.03,22222,11.81,73184.3,-11.15,-13.65,-13.87,0,*6A
1487394280.32,22223,11.81,73184.8,-11.17,-13.83,-14.01,0,*68
1487394281.6,22224,11.81,73188.5,-11.15,-13.97,-13.97,0,*60
1487394282.86,22225,11.81,73190.5,-11.15,-14.01,-13.79,0,*69
1487394284.1,22226,11.81,73186.0,-11.15,-14.15,-13.79,0,*6F
1487394285.34,22227,11.81,73188.5,-11.15,-14.15,-13.79,0,*6E
1487394286.55,22228,11.81,73188.3,-11.15,-14.23,-13.69,0,*65
1487394287.76,22229,11.81,73190.0,-11.15,-14.29,-13.69,0,*6E
1487394288.98,22230,11.81,73184.3,-11.15,-14.23,-13.65,0,*60
1487394290.22,22231,11.81,73184.3,-11.15,-14.43,-13.65,0,*67
1487394291.48,22232,11.81,73188.3,-11.17,-14.55,-13.73,0,*66
1487394292.71,22233,11.81,73184.5,-11.17,-14.61,-13.69,0,*6B
1487394293.94,22234,11.81,73186.0,-11.17,-14.69,-13.65,0,*68
1487394295.17,22235,11.81,73182.8,-11.15,-14.75,-13.65,0,*66
1487394296.41,22236,11.81,73176.0,-11.17,-14.61,-13.55,0,*61
1487394297.65,22237,11.81,73174.5,-11.15,-14.55,-13.55,0,*65
1487394298.89,22238,11.81,73182.5,-11.17,-14.61,-13.55,0,*6F
1487394300.16,22239,11.81,73182.5,-11.15,-14.51,-13.37,0,*6B
1487394301.4,22240,11.81,73178.8,-11.15,-14.43,-13.23,0,*63
1487394302.63,22241,11.81,73178.0,-11.15,-14.29,-13.29,0,*64
1487394303.87,22242,11.81,73176.0,-11.15,-14.29,-13.29,0,*67
1487394305.14,22243,11.81,73176.5,-11.17,-14.33,-13.33,0,*64
1487394306.44,22244,11.81,73186.0,-11.17,-14.47,-13.33,0,*60
1487394307.7,22245,11.81,73180.0,-11.15,-14.43,-13.37,0,*63
1487394308.94,22246,11.81,73180.5,-11.15,-14.55,-13.43,0,*64
1487394310.17,22247,11.81,73182.8,-11.15,-14.55,-13.43,0,*65
1487394311.44,22248,11.81,73180.3,-11.15,-14.43,-13.37,0,*6E
1487394312.7,22249,11.81,73180.5,-11.15,-14.43,-13.29,0,*60
1487394313.94,22250,11.81,73178.8,-11.15,-14.43,-13.23,0,*62
1487394315.17,22251,11.81,73180.5,-11.15,-14.43,-13.15,0,*66
1487394316.42,22252,11.81,73182.5,-11.17,-14.33,-13.19,0,*6C
1487394317.63,22253,11.81,73178.3,-11.15,-14.29,-13.11,0,*6C
1487394318.85,22254,11.81,73178.5,-11.15,-14.29,-12.97,0,*64
1487394320.09,22255,11.81,73180.8,-11.15,-14.11,-12.83,0,*6B
1487394321.39,22256,11.81,73180.8,-11.17,-13.83,-12.75,0,*6F
1487394322.63,22257,11.81,73176.5,-11.15,-13.65,-12.57,0,*64
1487394323.87,22258,11.81,73178.3,-11.15,-13.37,-12.43,0,*69
1487394325.09,22259,11.81,73180.0,-11.15,-13.23,-12.39,0,*60
1487394326.33,22260,11.81,73178.5,-11.15,-12.97,-12.15,0,*6A
1487394327.59,22261,11.81,73174.3,-11.15,-12.83,-12.15,0,*6E
1487394328.85,22262,11.81,73176.0,-11.15,-12.57,-12.15,0,*64
1487394330.09,22263,11.81,73178.5,-11.15,-12.53,-12.03,0,*66
1487394331.3,22264,11.81,73178.0,-11.15,-12.43,-12.03,0,*60
1487394332.52,22265,11.81,73176.8,-11.15,-12.39,-12.03,0,*6C
1487394333.73,22266,11.81,73178.5,-11.15,-12.43,-12.03,0,*62
1487394334.97,22267,11.81,73176.8,-11.13,-12.29,-12.03,0,*69
1487394336.25,22268,11.81,73178.0,-11.13,-12.29,-11.93,0,*6C
1487394337.54,22269,11.81,73178.5,-11.13,-12.15,-11.97,0,*66
1487394338.81,22270,11.81,73176.8,-11.13,-12.25,-11.93,0,*69
1487394340.08,22271,11.81,73180.8,-11.13,-12.25,-11.97,0,*6C
1487394341.36,22272,11.81,73182.3,-11.13,-12.15,-11.97,0,*6C
1487394342.66,22273,11.81,73180.0,-11.13,-12.15,-11.93,0,*69
1487394343.95,22274,11.81,73182.3,-11.13,-12.15,-11.85,0,*69
1487394345.24,22275,11.81,73180.0,-11.13,-12.15,-11.93,0,*6F
1487394346.5,22276,11.81,73178.8,-11.11,-12.11,-11.81,0,*69
1487394347.74,22277,11.81,73180.8,-11.11,-12.03,-11.81,0,*6B
1487394349.0,22278,11.81,73180.8,-11.11,-11.97,-11.77,0,*63
1487394350.26,22279,11.81,73180.5,-11.11,-11.89,-11.67,0,*6C
1487394351.56,22280,11.81,73180.8,-11.13,-11.93,-11.73,0,*66
1487394352.82,22281,11.81,73186.0,-11.11,-11.93,-11.77,0,*61
1487394354.08,22282,11.81,73184.3,-11.11,-11.89,-11.77,0,*69
1487394355.34,22283,11.81,73186.0,-11.11,-11.81,-11.77,0,*60
1487394356.6,22284,11.81,73184.5,-11.11,-11.77,-11.67,0,*6F
1487394357.86,22285,11.81,73182.5,-11.11,-11.81,-11.67,0,*67
1487394359.12,22286,11.81,73186.8,-11.11,-11.81,-11.67,0,*64
1487394360.41,22287,11.81,73190.0,-11.09,-11.89,-11.77,0,*65
1487394361.67,22288,11.81,73188.5,-11.11,-11.89,-11.77,0,*63
1487394362.93,22289,11.81,73188.8,-11.11,-11.89,-11.77,0,*62
1487394364.21,22290,11.81,73188.5,-11.09,-11.89,-11.81,0,*6A
1487394365.49,22291,11.81,73190.3,-11.09,-11.97,-11.89,0,*6C
1487394366.77,22292,11.81,73186.5,-11.09,-12.07,-11.81,0,*6D
1487394368.02,22293,11.81,73184.3,-11.05,-12.03,-11.85,0,*60
1487394369.3,22294,11.81,73186.5,-11.09,-12.07,-11.93,0,*68
1487394370.59,22295,11.81,73186.8,-11.09,-11.97,-11.93,0,*63
1487394371.88,22296,11.81,73186.3,-11.09,-12.11,-11.93,0,*6D
1487394373.14,22297,11.81,73182.3,-11.09,-12.25,-11.93,0,*6B
1487394374.39,22298,11.81,73184.8,-11.05,-12.29,-11.93,0,*64
1487394375.62,22299,11.81,73182.5,-11.05,-12.29,-12.03,0,*6F
1487394376.88,22300,11.81,73182.5,-11.09,-12.39,-12.07,0,*67
1487394378.13,22301,11.81,73184.3,-11.09,-12.47,-11.97,0,*65
1487394379.39,22302,11.81,73184.5,-11.09,-12.39,-11.97,0,*6F
1487394380.64,22303,11.81,73188.3,-11.05,-12.35,-12.03,0,*60
1487394381.88,22304,11.81,73192.5,-11.05,-12.43,-11.93,0,*6C
1487394383.14,22305,11.81,73188.5,-11.09,-12.47,-11.97,0,*61
1487394384.39,22306,11.81,73188.0,-11.05,-12.47,-11.93,0,*6A
1487394385.68,22307,11.81,73188.5,-11.03,-12.57,-11.93,0,*6C
1487394386.92,22308,11.81,73186.3,-11.05,-12.47,-11.97,0,*60
1487394388.17,22309,11.81,73186.5,-11.05,-12.47,-11.93,0,*65
1487394389.42,22310,11.81,73188.0,-11.05,-12.47,-11.89,0,*66
1487394390.69,22311,11.81,73186.5,-11.05,-12.35,-11.89,0,*62
1487394391.96,22312,11.81,73186.0,-11.05,-12.35,-11.85,0,*6D
1487394393.23,22313,11.81,73190.0,-11.03,-12.29,-11.85,0,*67
1487394394.5,22314,11.81,73188.5,-11.05,-12.15,-11.73,0,*60
1487394395.8,22315,11.81,73186.3,-11.03,-12.07,-11.63,0,*65
1487394397.09,22316,11.81,73184.5,-11.03,-11.93,-11.59,0,*61
1487394398.38,22317,11.81,73186.3,-11.03,-11.89,-11.59,0,*6B
1487394399.65,22318,11.81,73186.5,-11.05,-11.77,-11.59,0,*63
1487394400.94,22319,11.81,73186.5,-11.03,-11.73,-11.59,0,*60
1487394402.23,22320,11.81,73190.0,-11.03,-11.73,-11.59,0,*6A
1487394403.52,22321,11.81,73188.0,-11.03,-11.59,-11.59,0,*63
1487394404.79,22322,11.81,73186.0,-11.01,-11.59,-11.55,0,*6E
1487394406.06,22323,11.81,73188.0,-11.01,-11.55,-11.55,0,*63
1487394407.35,22324,11.81,73184.0,-11.03,-11.63,-11.59,0,*6F
1487394408.64,22325,11.81,73186.3,-11.03,-11.63,-11.59,0,*6E
1487394409.91,22326,11.81,73184.8,-11.01,-11.59,-11.59,0,*66
1487394411.2,22327,11.81,73184.5,-11.03,-11.73,-11.63,0,*64
1487394412.47,22328,11.81,73184.5,-11.01,-11.67,-11.59,0,*65
1487394413.74,22329,11.81,73186.3,-11.01,-11.67,-11.55,0,*68
1487394415.01,22330,11.81,73184.8,-11.01,-11.59,-11.55,0,*6D
1487394416.28,22331,11.81,73184.5,-11.01,-11.67,-11.55,0,*61
1487394417.54,22332,11.81,73184.5,-11.01,-11.67,-11.55,0,*62
1487394418.81,22333,11.81,73186.0,-11.01,-11.67,-11.55,0,*63
1487394420.05,22334,11.81,73190.8,-11.01,-11.55,-11.45,0,*64
1487394421.32,22335,11.81,73188.8,-11.01,-11.59,-11.59,0,*64
1487394422.58,22336,11.81,73190.3,-11.01,-11.73,-11.67,0,*62
1487394423.87,22337,11.81,73186.3,-10.99,-11.67,-11.59,0,*6B
1487394425.16,22338,11.81,73188.3,-10.99,-11.67,-11.59,0,*64
1487394426.45,22339,11.81,73182.8,-10.99,-11.59,-11.55,0,*64
1487394427.75,22340,11.81,73186.0,-10.99,-11.59,-11.55,0,*6A
1487394429.01,22341,11.81,73188.8,-10.97,-11.55,-11.55,0,*69
1487394430.26,22342,11.81,73186.8,-10.97,-11.59,-11.45,0,*67
1487394431.5,22343,11.81,73184.8,-10.97,-11.59,-11.45,0,*66
1487394432.79,22344,11.81,73186.5,-10.99,-11.67,-11.55,0,*63
1487394434.08,22345,11.81,73186.3,-10.99,-11.59,-11.59,0,*63
1487394435.37,22346,11.81,73188.5,-10.99,-11.59,-11.55,0,*6C
1487394436.67,22347,11.81,73188.5,-10.99,-11.59,-11.55,0,*6D
1487394437.96,22348,11.81,73188.5,-10.99,-11.55,-11.55,0,*6E
1487394439.22,22349,11.81,73184.3,-10.97,-11.59,-11.59,0,*61
1487394440.49,22350,11.81,73184.3,-10.97,-11.59,-11.59,0,*69
1487394441.78,22351,11.81,73184.3,-10.99,-11.67,-11.59,0,*6B
1487394443.05,22352,11.81,73184.0,-10.97,-11.59,-11.55,0,*67
1487394444.31,22353,11.81,73184.8,-10.97,-11.59,-11.59,0,*6A
1487394445.58,22354,11.81,73184.8,-10.97,-11.59,-11.55,0,*61
1487394446.85,22355,11.81,73186.3,-10.97,-11.59,-11.55,0,*60
1487394448.14,22356,11.81,73184.8,-10.95,-11.55,-11.55,0,*6D
1487394449.43,22357,11.81,73182.0,-10.95,-11.55,-11.51,0,*68
1487394450.73,22358,11.81,73186.5,-10.95,-11.55,-11.51,0,*67
1487394452.02,22359,11.81,73180.3,-10.95,-11.67,-11.67,0,*62
1487394453.31,22360,11.81,73186.5,-10.95,-11.77,-11.77,0,*68
1487394454.61,22361,11.81,73182.0,-10.95,-11.67,-11.63,0,*6D
1487394455.9,22362,11.81,73184.3,-10.95,-11.67,-11.63,0,*6E
1487394457.2,22363,11.81,73180.3,-10.95,-11.67,-11.63,0,*6F
1487394458.5,22364,11.81,73184.8,-10.95,-11.59,-11.63,0,*65
1487394459.76,22365,11.81,73186.8,-10.93,-11.63,-11.59,0,*62
1487394461.06,22366,11.81,73188.8,-10.95,-11.67,-11.63,0,*6A
1487394462.36,22367,11.81,73180.5,-10.95,-11.63,-11.55,0,*6A
1487394463.6,22368,11.81,73186.0,-10.93,-11.63,-11.45,0,*62
1487394464.89,22369,11.81,73186.8,-10.95,-11.63,-11.51,0,*60
1487394466.18,22370,11.81,73184.8,-10.95,-11.63,-11.51,0,*68
1487394467.47,22371,11.81,73184.0,-10.95,-11.55,-11.55,0,*68
1487394468.77,22372,11.81,73184.3,-10.95,-11.63,-11.51,0,*6A
1487394470.06,22373,11.81,73184.8,-10.95,-11.63,-11.63,0,*6A
1487394471.36,22374,11.81,73180.0,-10.95,-11.67,-11.63,0,*69
1487394472.66,22375,11.81,73180.3,-10.95,-11.63,-11.63,0,*6C
1487394473.96,22376,11.81,73180.0,-10.95,-11.67,-11.63,0,*6B
1487394475.26,22377,11.81,73186.8,-10.95,-11.67,-11.63,0,*6A
1487394476.53,22378,11.81,73182.8,-10.93,-11.59,-11.63,0,*6E
1487394477.82,22379,11.81,73184.0,-10.95,-11.67,-11.63,0,*64
1487394479.09,22380,11.81,73186.0,-10.93,-11.63,-11.59,0,*69
1487394480.39,22381,11.81,73182.8,-10.95,-11.63,-11.63,0,*67
1487394481.65,22382,11.81,73188.3,-10.93,-11.63,-11.59,0,*6B
1487394482.94,22383,11.81,73188.5,-10.95,-11.63,-11.59,0,*6C
1487394484.24,22384,11.81,73190.8,-10.95,-11.67,-11.63,0,*66
1487394485.5,22385,11.81,73186.8,-10.93,-11.63,-11.51,0,*64
1487394486.79,22386,11.81,73188.0,-10.95,-11.77,-11.67,0,*61
1487394488.05,22387,11.81,73184.8,-10.93,-11.73,-11.59,0,*6F
1487394489.29,22388,11.81,73188.0,-10.93,-11.63,-11.45,0,*6C
1487394490.55,22389,11.81,73186.8,-10.93,-11.59,-11.51,0,*61
1487394491.82,22390,11.81,73184.0,-10.93,-11.63,-11.59,0,*68
1487394493.08,22391,11.81,73186.3,-10.93,-11.63,-11.51,0,*61
1487394494.34,22392,11.81,73182.8,-10.93,-11.63,-11.51,0,*62
1487394495.6,22393,11.81,73184.3,-10.93,-11.59,-11.51,0,*6A
1487394496.84,22394,11.81,73188.3,-10.93,-11.59,-11.45,0,*68